Погода в Ансане

Южная Корея     37°17′39″N   126°49′53″E
темп.,
°C
ветер,
м/с
пор.,
м/с
влажн.,
%
обл.,
%
осадки,
мм/ч
давл.,
гПа
погр.,
м
12 мая, ср
ср1200:00+16вюв61339100 0.0 1013359
03:00+15вюв61142100 0.0 1013333
06:00+15вюв51043100 0.0 1013269
09:00+17вюв5838100 0.0 1013321
12:00+20юв4641100 0.0 1012456
15:00+22ю234345 0.0 1010721
18:00+20сз33520 0.0 1010354
21:00+18ссз22520 0.0 101140
13 мая, чт
чт1300:00+18ссз22521 0.0 101214
03:00+17юв115736 0.0 101113
06:00+16ююв00645 0.0 101215
09:00+18ююв015618 0.0 1013232
12:00+20зсз3255100 0.0 1012496
15:00+20зсз43541 0.0 1011339
18:00+18зсз45600 0.0 1010174
21:00+16сз34760 0.0 101288
14 мая, пт
пт1400:00+15зюз11810 0.0 101237
03:00+15юз11843 0.0 101230
06:00+15юв118313 0.0 101316
09:00+18юв1171100 0.0 1013233
12:00+22з125943 0.0 1012514
15:00+22з3359100 0.0 1010648
18:00+21зсз346484 0.0 1009129
21:00+17з2476100 0.0 1012103
15 мая, сб
сб1500:00+16з1180100 0.0 101271
03:00+16ю227999 0.0 101139
06:00+17в2373100 0.0 101054
09:00+20вюв466698 0.0 1009324
12:00+20юв4574100 0.1 1008216
15:00+19юв5783100 0.3 1006210
18:00+19вюв4585100 0.8 1005166
21:00+19вюв3491100 1.8 1005133
16 мая, вс
вс1600:00+18юв3496100 4.8 1005140
03:00+18ююв3498100 7.8 1004132
06:00+17ю2499100 6.2 1004159
09:00+17ююв2398100 7.6 1004166
12:00+17юв1298100 2.6 1004148
15:00+17зюз1199100 6.6 100372
18:00+17юз1198100 1.1 100362
21:00+17в2594100 2.1 1004206